You are listening to:
YSBK ATIS - Bankstown, New South Wales, Australia

YSSY 022100Z 30007KT 9999 FEW020 13/10 Q1022

If stream doesn't start automatically press the play button
If stream stops then reload player then press play